TimeCST,TemperatureF,Dew PointF,Humidity,Sea Level PressureIn,VisibilityMPH,Wind Direction,Wind SpeedMPH,Gust SpeedMPH,PrecipitationIn,Events,Conditions,WindDirDegrees,DateUTC
12:15 AM,-22.0,-29.2,69,30.49,10.0,West,11.5,-,N/A,,Unknown,280,2014-03-02 06:15:00
12:35 AM,-22.0,-29.2,69,30.49,10.0,West,15.0,-,N/A,,Unknown,280,2014-03-02 06:35:00
12:55 AM,-22.0,-29.2,69,30.49,10.0,West,16.1,-,N/A,,Unknown,280,2014-03-02 06:55:00
1:15 AM,-22.0,-29.2,69,30.49,10.0,West,15.0,-,N/A,,Unknown,280,2014-03-02 07:15:00
1:35 AM,-23.8,-29.2,76,30.49,10.0,WNW,12.7,-,N/A,,Unknown,290,2014-03-02 07:35:00
1:55 AM,-23.8,-31.0,69,30.49,10.0,West,12.7,-,N/A,,Unknown,280,2014-03-02 07:55:00
2:15 AM,-23.8,-31.0,69,30.49,10.0,West,10.4,-,N/A,,Unknown,280,2014-03-02 08:15:00
2:35 AM,-23.8,-31.0,69,30.48,10.0,WNW,11.5,-,N/A,,Unknown,290,2014-03-02 08:35:00
2:55 AM,-22.0,-31.0,63,30.48,10.0,WNW,12.7,-,N/A,,Unknown,290,2014-03-02 08:55:00
3:15 AM,-20.2,-29.2,63,30.47,10.0,WNW,16.1,-,N/A,,Unknown,290,2014-03-02 09:15:00
3:35 AM,-22.0,-29.2,69,30.47,10.0,WNW,11.5,-,N/A,,Unknown,290,2014-03-02 09:35:00
3:55 AM,-23.8,-31.0,69,30.47,10.0,West,11.5,-,N/A,,Unknown,270,2014-03-02 09:55:00
4:15 AM,-23.8,-31.0,69,30.47,10.0,West,6.9,-,N/A,,Unknown,280,2014-03-02 10:15:00
4:35 AM,-23.8,-31.0,69,30.47,10.0,West,10.4,-,N/A,,Unknown,280,2014-03-02 10:35:00
4:55 AM,-23.8,-31.0,69,30.47,10.0,West,9.2,-,N/A,,Unknown,270,2014-03-02 10:55:00
5:15 AM,-23.8,-31.0,69,30.48,10.0,West,10.4,-,N/A,,Unknown,280,2014-03-02 11:15:00
5:35 AM,-23.8,-31.0,69,30.48,10.0,West,11.5,-,N/A,,Unknown,280,2014-03-02 11:35:00
5:55 AM,-23.8,-31.0,69,30.47,10.0,West,11.5,-,N/A,,Unknown,280,2014-03-02 11:55:00
6:15 AM,-23.8,-31.0,69,30.47,10.0,WNW,11.5,-,N/A,,Unknown,290,2014-03-02 12:15:00
6:35 AM,-23.8,-31.0,69,30.47,10.0,West,11.5,-,N/A,,Unknown,280,2014-03-02 12:35:00
6:55 AM,-23.8,-31.0,69,30.47,10.0,West,11.5,-,N/A,,Unknown,280,2014-03-02 12:55:00
7:15 AM,-25.6,-31.0,76,30.47,10.0,West,11.5,-,N/A,,Unknown,270,2014-03-02 13:15:00
7:35 AM,-23.8,-31.0,69,30.47,10.0,West,12.7,-,N/A,,Unknown,280,2014-03-02 13:35:00
7:55 AM,-23.8,-31.0,69,30.48,10.0,West,12.7,-,N/A,,Unknown,280,2014-03-02 13:55:00
8:15 AM,-22.0,-29.2,69,30.48,10.0,West,12.7,-,N/A,,Unknown,280,2014-03-02 14:15:00
8:35 AM,-22.0,-29.2,69,30.48,10.0,WNW,12.7,-,N/A,,Unknown,290,2014-03-02 14:35:00
8:55 AM,-20.2,-27.4,69,30.48,10.0,WNW,15.0,-,N/A,,Unknown,290,2014-03-02 14:55:00
9:15 AM,-20.2,-27.4,69,30.49,10.0,WNW,15.0,-,N/A,,Unknown,290,2014-03-02 15:15:00
9:35 AM,-18.4,-27.4,63,30.49,10.0,WNW,13.8,-,N/A,,Unknown,290,2014-03-02 15:35:00
9:55 AM,-18.4,-25.6,70,30.49,10.0,WNW,12.7,-,N/A,,Unknown,290,2014-03-02 15:55:00
10:15 AM,-16.6,-23.8,70,30.49,10.0,WNW,15.0,-,N/A,,Unknown,300,2014-03-02 16:15:00
10:35 AM,-14.8,-22.0,70,30.49,10.0,WNW,13.8,-,N/A,,Unknown,300,2014-03-02 16:35:00
10:55 AM,-13.0,-22.0,64,30.49,10.0,WNW,13.8,-,N/A,,Unknown,300,2014-03-02 16:55:00
11:15 AM,-13.0,-22.0,64,30.49,10.0,WNW,13.8,-,N/A,,Unknown,290,2014-03-02 17:15:00
11:35 AM,-11.2,-20.2,64,30.50,10.0,West,12.7,-,N/A,,Unknown,280,2014-03-02 17:35:00
11:55 AM,-11.2,-20.2,64,30.50,10.0,WNW,16.1,-,N/A,,Unknown,290,2014-03-02 17:55:00
12:15 PM,-9.4,-18.4,65,30.50,10.0,West,17.3,-,N/A,,Unknown,280,2014-03-02 18:15:00
12:35 PM,-9.4,-18.4,65,30.49,10.0,WNW,15.0,-,N/A,,Unknown,290,2014-03-02 18:35:00
12:55 PM,-7.6,-16.6,65,30.49,10.0,WNW,12.7,-,N/A,,Unknown,300,2014-03-02 18:55:00
1:15 PM,-7.6,-16.6,65,30.48,10.0,WNW,15.0,-,N/A,,Unknown,300,2014-03-02 19:15:00
1:35 PM,-5.8,-14.8,65,30.48,10.0,WNW,17.3,-,N/A,,Unknown,300,2014-03-02 19:35:00
1:55 PM,-4.0,-13.0,65,30.47,10.0,West,13.8,-,N/A,,Unknown,280,2014-03-02 19:55:00
2:15 PM,-4.0,-13.0,65,30.46,10.0,WNW,12.7,-,N/A,,Unknown,290,2014-03-02 20:15:00
2:35 PM,-4.0,-13.0,65,30.46,10.0,West,15.0,-,N/A,,Unknown,280,2014-03-02 20:35:00
2:55 PM,-4.0,-13.0,65,30.46,10.0,WNW,16.1,-,N/A,,Unknown,290,2014-03-02 20:55:00
3:15 PM,-4.0,-13.0,65,30.46,10.0,WNW,16.1,-,N/A,,Unknown,290,2014-03-02 21:15:00
3:35 PM,-4.0,-13.0,65,30.46,10.0,WNW,18.4,-,N/A,,Unknown,290,2014-03-02 21:35:00
3:55 PM,-2.2,-9999,N/A,30.45,10.0,WNW,13.8,-,N/A,,Unknown,290,2014-03-02 21:55:00
4:15 PM,-2.2,-13.0,60,30.45,10.0,WNW,12.7,-,N/A,,Unknown,300,2014-03-02 22:15:00
4:35 PM,-2.2,-9999,N/A,30.45,10.0,NW,11.5,-,N/A,,Unknown,310,2014-03-02 22:35:00
4:55 PM,-2.2,-11.2,66,30.44,10.0,NW,11.5,-,N/A,,Unknown,310,2014-03-02 22:55:00
5:15 PM,-4.0,-9999,N/A,30.45,10.0,WNW,12.7,-,N/A,,Unknown,300,2014-03-02 23:15:00
5:35 PM,-4.0,-13.0,65,30.45,10.0,WNW,12.7,-,N/A,,Unknown,290,2014-03-02 23:35:00
5:55 PM,-4.0,-13.0,65,30.45,10.0,NW,9.2,-,N/A,,Unknown,310,2014-03-02 23:55:00
6:15 PM,-5.8,-13.0,71,30.45,10.0,WNW,8.1,-,N/A,,Unknown,300,2014-03-03 00:15:00
6:35 PM,-7.6,-13.0,77,30.45,10.0,WNW,8.1,-,N/A,,Unknown,300,2014-03-03 00:35:00
6:55 PM,-7.6,-14.8,71,30.45,10.0,WNW,6.9,-,N/A,,Unknown,300,2014-03-03 00:55:00
7:15 PM,-9.4,-16.6,71,30.45,10.0,WNW,6.9,-,N/A,,Unknown,300,2014-03-03 01:15:00
7:35 PM,-9.4,-16.6,71,30.44,10.0,NW,8.1,-,N/A,,Unknown,310,2014-03-03 01:35:00
7:55 PM,-9.4,-16.6,71,30.44,10.0,WNW,6.9,-,N/A,,Unknown,290,2014-03-03 01:55:00
8:15 PM,-9.4,-16.6,71,30.44,10.0,West,5.8,-,N/A,,Unknown,280,2014-03-03 02:15:00
8:35 PM,-11.2,-16.6,77,30.43,10.0,NW,6.9,-,N/A,,Unknown,310,2014-03-03 02:35:00
8:55 PM,-11.2,-16.6,77,30.43,10.0,WNW,4.6,-,N/A,,Unknown,290,2014-03-03 02:55:00
9:15 PM,-11.2,-16.6,77,30.42,10.0,NW,3.5,-,N/A,,Unknown,320,2014-03-03 03:15:00
9:35 PM,-11.2,-16.6,77,30.42,10.0,WNW,3.5,-,N/A,,Unknown,290,2014-03-03 03:35:00
9:55 PM,-9999,-9999,N/A,30.41,10.0,West,4.6,-,N/A,,Unknown,280,2014-03-03 03:55:00
10:15 PM,-13.0,-18.4,77,30.42,10.0,WSW,6.9,-,N/A,,Unknown,240,2014-03-03 04:15:00
10:35 PM,-13.0,-18.4,77,30.42,10.0,WSW,6.9,-,N/A,,Unknown,250,2014-03-03 04:35:00
10:55 PM,-9999,-9999,N/A,30.41,10.0,West,5.8,-,N/A,,Unknown,270,2014-03-03 04:55:00